weather.gov     
National Weather Service

Regional Weather Roundup
NWS Homepage
This page is being discontinued on March 12, 2014.
The same data is available at this site. Please update your bookmarks.
Thank you, and we apologize for the inconvenience.
Please send an email to SR-SRH.Webmaster@noaa.gov with any concerns.


Current Version
Previous Version:    01  02  03  04  05  06  07  08  09  10  11  12  13  14  15  16  17  18  19  20  21  22  23  24  25  26  27  28  29  30  
   31  32  33  34  35  36  37  38  39  40  41  42  43  44  45  46  47  48  49  50  51  52  53  54  55  56  57  58  59  60  
[Printable]
591
ASUS44 KFWD 190615
RWRTX
NORTH TEXAS HOURLY WEATHER ROUNDUP
NATIONAL WEATHER SERVICE FORT WORTH TX
1200 AM CST FRI DEC 19 2014

NOTE: "FAIR" INDICATES FEW OR NO CLOUDS BELOW 12,000 FEET WITH NO
SIGNIFICANT WEATHER AND/OR OBSTRUCTIONS TO VISIBILITY.

TXZ118-119-190700-
DALLAS/FORT WORTH METROPLEX

CITY           SKY/WX    TMP DP  RH WIND       PRES   REMARKS
DFW AIRPORT    CLOUDY    46  43  89 NE7       30.16F
6HR MIN TEMP:  46; 6HR MAX TEMP:  48;

DALLAS LOVE    CLOUDY    47  43  86 NE7       30.16F
6HR MIN TEMP:  47; 6HR MAX TEMP:  49;

FTW MEACHAM    CLOUDY    47  44  90 N8        30.15F FOG
6HR MIN TEMP:  46; 6HR MAX TEMP:  50;

DAL-EXECUTIVE  CLOUDY    48  43  82 NE8       30.15F
6HR MIN TEMP:  48; 6HR MAX TEMP:  50;

FTW-ALLIANCE   CLOUDY    45  43  93 N9        30.16F
6HR MIN TEMP:  45; 6HR MAX TEMP:  48;

FTW-SPINKS     CLOUDY    47  44  90 NE5       30.17S
6HR MIN TEMP:  47; 6HR MAX TEMP:  49;

ARLINGTON      CLOUDY    48  43  82 NE12      30.15F
6HR MIN TEMP:  48; 6HR MAX TEMP:  50;

GRAND PRAIRIE  CLOUDY    47  46  96 N6        30.18R
6HR MIN TEMP:  47; 6HR MAX TEMP:  48;

ADDISON        CLOUDY    47  47 100 NE5       30.17F
6HR MIN TEMP:  47; 6HR MAX TEMP:  49;

MESQUITE       CLOUDY    46  44  94 NE6       30.17F
6HR MIN TEMP:  46; 6HR MAX TEMP:  47;

LANCASTER      CLOUDY    46  43  89 NE7       30.17F
6HR MIN TEMP:  46; 6HR MAX TEMP:  48;

$$

TXZ091>094-102>105-117-120-121-131>134-190700-
NORTH CENTRAL TEXAS

CITY           SKY/WX    TMP DP  RH WIND       PRES   REMARKS
SHRMAN/DENISON CLOUDY    44  44 100 NE5       30.20F FOG
6HR MIN TEMP:  44; 6HR MAX TEMP:  45;

GAINESVILLE    CLOUDY    43  42  97 NE6       30.21F WCI  39
6HR MIN TEMP:  43; 6HR MAX TEMP:  45;

BOWIE          CLOUDY    43  43  99 NE3       30.18F FOG
6HR MIN TEMP:  43; 6HR MAX TEMP:  47;

BRIDGEPORT     CLOUDY    46  46 100 NE6       30.20S
6HR MIN TEMP:  46; 6HR MAX TEMP:  49;

DECATUR        CLOUDY    43  43  99 E7        30.17F FOG     WCI  39
6HR MIN TEMP:  43; 6HR MAX TEMP:  48;

DENTON         CLOUDY    45  42  89 NE8       30.17F
6HR MIN TEMP:  45; 6HR MAX TEMP:  47;

MCKINNEY       CLOUDY    45  43  93 NE7       30.17F
6HR MIN TEMP:  45; 6HR MAX TEMP:  46;

GREENVILLE     CLOUDY    45  43  93 N5        30.18F FOG
ROCKWALL       CLOUDY    46  45  97 NE8       30.15F FOG
6HR MIN TEMP:  46; 6HR MAX TEMP:  46;

TERRELL        CLOUDY    48  44  86 NE8       30.17S
6HR MIN TEMP:  47; 6HR MAX TEMP:  49;

WAXAHACHIE     CLOUDY    46  46 100 N7        30.17S FOG
6HR MIN TEMP:  46; 6HR MAX TEMP:  48;

CLEBURNE       CLOUDY    46  46 100 NE5       30.16F
GRANBURY       CLOUDY    47  44  86 CALM      30.18S
6HR MIN TEMP:  47; 6HR MAX TEMP:  50;

$$

TXZ083>090-098>101-113>116-127>130-139>142-154-155-190700-
WESTERN NORTH TEXAS

CITY           SKY/WX    TMP DP  RH WIND       PRES   REMARKS
WICHITA FALLS  CLOUDY    43  41  93 NE7       30.20S WCI  39
6HR MIN TEMP:  43; 6HR MAX TEMP:  44;

WF-KICKAPOO    CLOUDY    44  44  99 NE5       30.21F
6HR MIN TEMP:  44; 6HR MAX TEMP:  45;

VERNON         CLOUDY    44  39  82 NE5       30.21F
6HR MIN TEMP:  32; 6HR MAX TEMP:  52;

ABILENE        CLOUDY    44  39  82 NE7       30.16R
6HR MIN TEMP:  44; 6HR MAX TEMP:  52;

ABILENE-DYESS  CLOUDY    44  38  80 NE12      30.13F WCI  38
6HR MIN TEMP:  44; 6HR MAX TEMP:  51;

BRECKENRIDGE   CLOUDY    47  45  94 NE9       30.15F FOG
6HR MIN TEMP:  47; 6HR MAX TEMP:  50;

GRAHAM         CLOUDY    45  45  99 N3        30.16F
6HR MIN TEMP:  45; 6HR MAX TEMP:  48;

MINERAL WELLS  CLOUDY    47  43  86 N3        30.16S
6HR MIN TEMP:  47; 6HR MAX TEMP:  48;

STEPHENVILLE   CLOUDY    47  43  87 NE5       30.17S
6HR MIN TEMP:  46; 6HR MAX TEMP:  51;

COMANCHE       CLOUDY    47  45  91 NE8       30.14F
6HR MIN TEMP:  47; 6HR MAX TEMP:  55;

BROWNWOOD      CLOUDY    48  43  81 NE9       30.13F
COLEMAN        CLOUDY    49  46  88 E10       30.13S
6HR MIN TEMP:  49; 6HR MAX TEMP:  58;

BRADY          CLOUDY    48  48 100 NE10      30.10S
$$

TXZ143>147-156>162-174-175-190700-
CENTRAL TEXAS

CITY           SKY/WX    TMP DP  RH WIND       PRES   REMARKS
WACO           CLOUDY    48  45  89 N9        30.13F
6HR MIN TEMP:  48; 6HR MAX TEMP:  50;

WACO-MCGREGOR  CLOUDY    48  41  76 N12       30.14F
6HR MIN TEMP:  48; 6HR MAX TEMP:  52;

HILLSBORO      CLOUDY    48  45  89 N10       30.14F FOG
6HR MIN TEMP:  48; 6HR MAX TEMP:  49;

CORSICANA      CLOUDY    49  45  86 N10       30.15F FOG
6HR MIN TEMP:  49; 6HR MAX TEMP:  50;

MEXIA          CLOUDY    48  47  98 N8        30.12F FOG
6HR MIN TEMP:  48; 6HR MAX TEMP:  50;

HEARNE         CLOUDY    51  50  97 N12G18    30.09F FOG
6HR MIN TEMP:  51; 6HR MAX TEMP:  55;

CAMERON        CLOUDY    50  49  97 N9        30.10S THUNDER FOG
6HR MIN TEMP:  50; 6HR MAX TEMP:  54;

TEMPLE         CLOUDY    48  43  81 N13       30.10S
6HR MIN TEMP:  48; 6HR MAX TEMP:  52;

KILLEEN        CLOUDY    47  46  98 NE14G21   30.12R
6HR MIN TEMP:  47; 6HR MAX TEMP:  53;

KILLEEN-SKYLRK CLOUDY    48  39  71 N13       30.09R
6HR MIN TEMP:  48; 6HR MAX TEMP:  54;

FORT HOOD      CLOUDY    47  46  95 N15       30.12R FOG
6HR MIN TEMP:  47; 6HR MAX TEMP:  52; 6HR PCP: TRACE;

GATESVILLE     CLOUDY    48  46  93 NE8       30.15S
HAMILTON       CLOUDY    48  47  99 NE7       30.13F
6HR MIN TEMP:  47; 6HR MAX TEMP:  53;

LAMPASAS       CLOUDY    48  46  93 NE5       30.10
6HR MIN TEMP:  48; 6HR MAX TEMP:  55;

$$

TXZ095>097-106>112-122>126-135>138-148>153-164>167-190700-
EAST TEXAS

CITY           SKY/WX    TMP DP  RH WIND       PRES   REMARKS
PARIS          CLOUDY    45  41  87 NE5       30.21R
6HR MIN TEMP:  45; 6HR MAX TEMP:  45;

SULPHUR SPRNGS CLOUDY    46  45  95 N8        30.19S FOG
6HR MIN TEMP:  46; 6HR MAX TEMP:  46;

MOUNT PLEASANT CLOUDY    46  45  94 NE7       30.19F
6HR MIN TEMP:  46; 6HR MAX TEMP:  47;

MINEOLA        CLOUDY    48  46  93 CALM      30.17S FOG
TYLER          CLOUDY    48  45  89 NE8       30.14F
6HR MIN TEMP:  48; 6HR MAX TEMP:  50;

LONGVIEW       CLOUDY    49  46  90 NE3       30.16S FOG
6HR MIN TEMP:  48; 6HR MAX TEMP:  50;

MARSHALL       CLOUDY    51  48  90 N5        30.18S
6HR MIN TEMP:  51; 6HR MAX TEMP:  51;

ATHENS         CLOUDY    46  45  93 NE8       30.12F FOG
PALESTINE      CLOUDY    50  49  95 NE7       30.15R FOG
JACKSONVILLE   FOG       49  49  98 NE9       30.14F VSB 3/4
HENDERSON      CLOUDY    48  48 100 NE7       30.16F FOG
6HR MIN TEMP:  48; 6HR MAX TEMP:  51;

NACOGDOCHES    CLOUDY    50  46  87 NE3       30.13F
6HR MIN TEMP:  50; 6HR MAX TEMP:  54;

LUFKIN         CLOUDY    56  49  77 NE7       30.11F
6HR MIN TEMP:  56; 6HR MAX TEMP:  58;

$$

SUPPLEMENTAL OBSERVATIONS (CENTRAL)

CITY           SKY/WX    TMP DP  RH WIND       PRES   REMARKS
LAKE TEXOMA      N/A     45  43  93 NE2         N/A
PAT MAYSE LAKE   N/A     45  43  93 N1          N/A
GREENVILLE       N/A     45  41  87 NE8         N/A
CEDAR HILL       N/A     46  43  87 NE6         N/A
ATHENS           N/A     48  45  87 NE2         N/A
PALESTINE        N/A     50  46  87 NE6         N/A
LAKE LIMESTONE   N/A     52  50  93 N12         N/A
MCGREGOR         N/A     48  43  81 N5G13       N/A




U.S. Dept. of Commerce
NOAA National Weather Service
1325 East West Highway
Silver Spring, MD 20910
E-mail: w-nws.webmaster@noaa.gov
Page last modified: May 16, 2007
NATIONAL WEATHER SERVICE: for Safety, for Work, for Fun - FOR LIFE